Location: Chervonnoye
(48.6000°N, 34.4000°E)
Time: 14:43:43
(UTC+00:00)

Cosmos 1939 Rocket - Pass Details

Date: 23 November 2020
Orbit: 532 x 584 km, 97.4° (Epoch: 26 January)

Event Time Altitude Azimuth Distance (km) Brightness Sun altitude
Rises 14:34:21 0° 126° (SE) 2,671 6.0 -6.7°
Reaches altitude 10° 14:36:56 10° 108° (ESE) 1,789 5.0 -7.1°
Maximum altitude 14:39:37 18° 63° (ENE) 1,343 4.2 -7.5°
Drops below altitude 10° 14:42:21 10° 19° (NNE) 1,810 5.1 -7.9°
Sets 14:44:57 0° 1° (N) 2,715 6.1 -8.3°
